Location: Ajisawe
(8.4333°N, 4.3833°E)
Time: 23:40:25
(UTC+00:00)

S-56A Canister/Altair - Pass Details

Date: 23 April 2021
Orbit: 631 x 2501 km, 38.9° (Epoch: 15 May)

Event Time Altitude Azimuth Distance (km) Brightness Sun altitude
Rises 21:42:15 0° 275° (W) 5,504 12.4 -53.7°
Reaches altitude 10° 21:48:36 10° 296° (WNW) 4,069 11.6 -55.0°
Maximum altitude 21:53:36 14° 325° (NW) 3,337 11.1 -55.9°
Enters shadow 21:55:53 13° 342° (NNW) 3,242 11.0 -56.4°
